Flag for Canada Weather past 2 weeks in Iqaluit, Nunavut Territory, Canada

Now
-20 °F

Snow flurries. Passing clouds.


Feels Like: -53 °F
Forecast: -19 / -10 °F
Wind: 29 mph from North

Location: Iqaluit

Current Time: Feb 27, 2015 at 12:11:27 AM

Latest Report: Feb 26, 2015 at 11:00 PM


Visibility: 2 mi

Pressure: 29.52 "Hg

Humidity: 68%

Dew point: -27 °F

Location of IqaluitLocation

Historic Weather in Iqaluit — Graph

°F

Iqaluit temperature yesterday

Maximum temperature yesterday: -17 °F (at 2:00 PM)
Minimum temperature yesterday: -33 °F (at 1:00 AM)
Average temperature yesterday: -25 °F

Past Weeks' High & Low Weather Summary

 TemperatureHumidityPressure
High-15 °F (Feb 21, 3:00 AM)75% (Feb 18, 3:00 PM)30.27 "Hg (Feb 18, 3:00 PM)
Low-38 °F (Feb 11, 10:00 PM)49% (Feb 13, 3:00 PM)29.54 "Hg (Feb 26, 10:00 PM)
Average-27 °F63%29.96 "Hg
* Reported Feb 11 10:00 PM — Feb 26 10:00 PM, Iqaluit, Weather by CustomWeather, © 2015

Note: Actual official high and low records may vary slightly from our data, if they occured in-between our weather recording intervals... More about our weather records

Advertising

Iqaluit weather history for previous 24 hours

 ConditionsComfort  
Time TempWeatherWind HumidityBarometerVisibility
10:00 PM
Thu, Feb 26
-20 °FSnow flurries. Passing clouds.18 mph68%29.54 "Hg10 mi
9:00 PM-22 °FSnow flurries. Low level haze.23 mph68%29.56 "Hg12 mi
8:00 PM-20 °FSnow flurries. Low level haze.24 mph68%29.57 "Hg10 mi
7:00 PM-20 °FSnow flurries. Passing clouds.18 mph62%29.59 "Hg60 mi
6:00 PM-18 °FLight snow. Partly cloudy.15 mph69%29.59 "Hg6 mi
5:00 PM-17 °FSnow flurries. Overcast.9 mph69%29.60 "Hg8 mi
4:00 PM-18 °FSnow flurries. More clouds than sun.12 mph69%29.61 "Hg10 mi
3:00 PM-18 °FSnow flurries. Partly sunny.7 mph69%29.62 "Hg6 mi
2:00 PM-17 °FSnow flurries. Partly sunny.5 mph69%29.63 "Hg5 mi
1:00 PM-22 °FSnow flurries. Broken clouds.No wind68%29.64 "Hg6 mi
12:00 PM-24 °FSnow flurries. More clouds than sun.No wind68%29.64 "Hg10 mi
11:00 AM-26 °FSnow flurries. More clouds than sun.No wind67%29.66 "Hg15 mi
10:00 AM-27 °FSnow flurries. Partly sunny.3 mph67%29.66 "Hg20 mi
9:00 AM-27 °FSnow flurries. Broken clouds.3 mph67%29.67 "Hg25 mi
8:00 AM-31 °FSnow flurries. Partly sunny.3 mph67%29.68 "Hg30 mi
7:00 AM-31 °FSnow flurries. Broken clouds.No wind67%29.70 "Hg25 mi
6:00 AM-31 °FSnow flurries. Passing clouds.No wind67%29.70 "Hg15 mi
5:00 AM-31 °FSnow flurries. Clear.5 mph67%29.70 "Hg15 mi
4:00 AM-31 °FSnow flurries. Clear.No wind67%29.70 "Hg15 mi
3:00 AM-31 °FClear.3 mph67%29.71 "Hg15 mi
2:00 AM-29 °FClear.5 mph67%29.71 "Hg15 mi
1:00 AM-33 °FClear.3 mph66%29.72 "Hg15 mi
12:00 AM-31 °FSnow flurries. Clear.5 mph67%29.72 "Hg15 mi
Weather by CustomWeather, © 2015

See weather overviewHow to use our weather pages